Terug naar catalogus

STARLINK-30253

ActiefCommunicatieVLEO
NORAD 57525·PAYLOAD·🇺🇸 United States

Gelanceerd Aug 8, 2023 vanaf Vandenberg Space Force Base

Loading…

Volgende Passages (komende 24 uur)

TLE

VersSource: CelesTrak SupGP

Epoch: Sep 15, 2026, 02:21 UTC

1 57525C 23115E   26258.09840278  .00005102  00000+0  18477-3 0  2582
2 57525  43.0018  12.0618 0001548 266.7835 222.3994 15.27577173    12

Volg STARLINK-30253 in realtime met AllMySat

Download on the App Store